GFSWCAN_850_rhum_273.txt.gz
RH
92 94 99 100 99 100 100 97 100 95 93 79 72 78 56 73 61 82 82 98 100 85 50 42 36 34 37 39 55 38 50 43 64 74 84 77 76 60 56 46 51 62 75 85 82 85 74 38 25 33 40 23 18 19
99 100 97 99 100 100 100 99 100 96 90 74 74 69 52 54 67 91 92 94 100 75 55 44 35 32 36 36 36 34 46 41 43 90 91 67 72 73 61 66 38 58 63 80 73 79 45 24 22 25 28 24 21 21
97 100 99 100 99 100 98 100 99 99 89 74 73 64 55 63 82 90 89 100 89 75 66 50 54 39 35 36 33 43 44 38 43 39 59 77 56 63 69 70 47 36 31 61 58 50 44 34 24 23 23 24 23 24
100 99 99 98 100 100 98 100 97 97 83 75 76 57 51 54 82 92 98 99 73 78 83 74 61 43 38 37 34 40 36 40 36 43 50 68 63 41 65 51 53 42 37 47 52 40 32 35 35 26 24 24 24 26
98 98 99 99 100 98 100 99 99 88 81 71 59 50 49 69 85 91 100 87 75 66 75 60 49 47 42 40 41 44 39 41 46 44 55 57 36 43 38 46 56 28 47 56 68 32 32 26 23 29 25 24 23 24
98 100 100 99 100 100 98 99 98 80 70 66 52 61 67 71 86 100 98 96 75 58 56 84 54 50 44 45 46 42 40 46 41 37 36 32 36 33 54 60 32 27 26 24 28 25 26 26 22 23 28 26 24 24
100 100 100 100 100 98 100 89 77 72 61 60 59 79 89 79 98 93 88 87 68 57 55 72 63 50 49 50 47 48 48 42 34 34 32 36 30 29 53 58 25 20 20 25 25 22 25 23 22 21 24 25 25 24
100 100 99 98 98 98 99 92 75 68 62 59 84 95 85 98 99 84 81 74 72 61 53 87 76 54 51 54 53 50 48 40 38 37 32 38 38 34 60 37 23 17 19 17 18 24 22 22 21 22 21 19 23 24
100 100 100 100 97 89 78 75 65 53 60 85 100 99 99 100 94 90 77 77 72 64 67 73 84 87 51 48 47 44 42 60 41 50 45 38 63 68 51 36 30 23 18 16 12 19 22 20 22 22 21 21 22 23
81 89 98 96 98 91 85 63 63 85 90 100 98 98 100 100 89 88 88 77 69 68 55 74 56 87 54 47 62 53 45 76 72 68 38 60 70 34 31 28 27 24 20 16 16 14 19 19 20 21 22 22 23 24
99 96 83 85 82 87 70 87 100 100 100 99 96 98 100 91 86 91 99 96 87 80 55 59 57 68 52 78 82 50 82 71 77 66 64 70 79 52 32 32 30 26 22 20 17 15 15 14 18 20 20 22 24 26
100 98 95 94 91 94 95 100 100 99 96 90 94 99 98 94 98 98 100 97 86 75 59 62 59 55 49 46 56 52 62 61 64 45 68 78 71 33 31 31 34 32 25 22 20 15 18 17 18 21 21 24 26 30
100 100 100 99 98 100 100 100 100 95 82 90 92 96 95 100 99 99 99 98 88 68 56 57 66 46 45 44 58 66 61 77 51 82 82 80 39 36 32 25 26 29 32 25 23 20 18 21 23 24 24 29 31 33
99 100 100 100 100 100 100 98 94 86 76 84 94 99 99 99 98 95 88 82 58 58 58 54 60 63 52 71 75 60 71 61 74 82 77 75 36 31 32 31 31 30 31 28 24 22 22 26 27 27 29 33 34 36
100 100 100 100 100 100 100 99 95 88 93 95 92 99 99 81 74 66 55 55 57 57 53 58 63 56 87 77 74 73 66 78 78 73 82 39 38 35 34 32 32 34 31 28 25 23 24 29 29 32 36 38 40 42
100 100 100 100 100 100 100 98 93 76 71 65 75 90 77 77 80 62 60 59 57 53 45 47 74 74 77 78 71 79 74 77 76 67 36 40 39 41 42 40 38 40 35 33 27 26 29 34 34 36 41 42 43 40
98 100 100 100 100 97 96 90 89 83 66 69 82 71 73 76 72 66 60 59 53 42 87 79 69 61 78 81 80 76 76 80 40 37 32 43 42 36 39 43 43 45 37 38 31 30 33 36 39 41 42 43 35 34
98 100 100 98 97 96 82 81 77 70 75 69 86 72 65 67 67 63 59 54 46 44 47 59 45 60 76 65 80 79 41 52 47 44 46 43 42 42 44 45 48 48 40 39 37 37 38 40 41 38 36 36 37 36
100 100 100 97 92 89 94 77 70 81 76 72 69 71 70 68 64 58 56 48 40 37 36 43 59 67 69 61 59 44 38 41 55 54 48 44 44 46 48 48 45 44 44 46 44 44 42 41 38 36 37 32 31 35
100 99 100 97 90 88 97 61 63 68 82 70 66 62 62 62 62 60 52 50 39 36 48 57 58 51 43 34 34 37 40 44 48 51 49 45 48 46 46 51 46 48 48 46 47 46 47 48 40 40 38 31 35 35
100 99 100 90 69 61 70 64 66 65 67 68 63 62 65 61 62 65 55 53 47 52 66 45 46 44 36 38 42 39 44 46 42 32 32 38 41 40 46 48 51 50 48 48 52 54 52 47 45 48 45 42 44 47
100 100 99 99 98 75 62 66 67 66 68 68 68 72 74 75 69 62 58 55 55 51 44 41 45 41 43 44 45 38 28 34 37 38 47 41 39 44 51 48 53 52 51 51 53 56 56 55 55 52 49 51 55 58
99 98 98 98 95 94 74 67 68 70 86 80 67 80 83 72 64 60 58 59 54 51 45 43 49 46 37 28 42 37 27 28 30 42 50 48 40 37 48 50 53 54 55 56 57 58 57 55 55 51 50 54 57 59
98 96 98 98 91 98 76 65 60 68 68 80 78 80 87 78 61 63 81 64 55 49 49 45 50 53 50 45 37 40 33 30 34 40 45 49 46 43 48 50 51 52 52 51 54 55 55 52 50 46 43 46 46 44
94 98 97 98 97 94 92 87 77 86 91 79 75 89 90 66 91 90 80 65 52 46 44 46 48 50 48 47 48 39 35 31 30 26 25 30 36 43 51 54 52 50 51 51 54 53 51 51 49 44 38 39 41 39
96 98 97 94 95 86 85 95 90 88 85 84 82 72 64 92 88 86 83 57 51 46 43 41 40 48 51 44 41 41 32 33 37 37 29 30 28 28 32 44 51 53 56 54 54 54 53 46 41 40 38 37 38 39
96 95 79 79 70 62 79 64 64 83 88 87 89 90 90 88 86 81 44 42 43 38 39 38 36 33 31 37 46 52 54 46 38 30 29 34 31 28 30 33 34 32 39 45 52 55 53 52 51 49 48 46 44 41
82 70 87 67 58 56 85 87 86 86 88 63 77 89 80 75 77 41 36 35 44 43 43 47 52 49 48 52 56 56 57 59 63 58 51 51 50 49 44 44 42 42 44 44 43 43 47 50 50 51 53 49 47 48
73 66 68 89 67 66 72 80 80 51 54 64 88 90 81 44 39 35 26 26 30 32 33 34 37 38 36 38 47 59 64 57 62 68 64 58 55 51 49 50 50 52 52 50 50 51 49 50 52 52 53 53 54 56
72 66 72 80 85 86 69 57 53 43 45 53 54 43 45 44 42 41 30 16 11 11 12 16 19 17 16 15 16 24 36 53 55 53 52 46 26 28 51 59 59 59 58 58 59 62 63 62 58 56 57 58 57 52
67 66 72 73 80 63 60 55 53 48 45 46 50 46 49 56 45 37 33 26 21 17 16 15 15 15 15 14 13 13 14 17 21 37 50 58 62 61 60 57 50 51 58 60 60 60 60 60 53 44 42 45 48 51
81 77 75 84 88 73 61 60 60 58 58 53 53 58 61 56 50 48 46 42 37 32 28 22 19 18 16 15 14 14 17 18 24 30 41 37 35 43 47 36 28 30 35 39 42 42 40 39 40 41 45 49 51 55
77 84 82 80 87 97 97 97 92 95 98 93 86 69 64 62 62 45 37 35 34 29 26 25 22 19 17 20 20 22 27 29 32 31 30 30 31 36 39 42 40 35 33 32 32 33 34 37 44 53 56 60 62 66

GFSWCAN_850_rhum_279.txt.gz
RH
94 88 91 87 83 82 82 84 86 95 96 93 96 92 89 78 84 100 91 69 64 74 68 61 75 69 60 64 61 42 48 45 64 69 75 80 75 72 66 53 58 70 78 84 88 80 61 40 29 34 38 26 22 23
81 81 85 89 88 88 78 80 82 91 95 94 96 94 88 80 87 100 100 79 83 83 67 74 84 80 56 52 44 37 39 34 31 83 90 80 75 80 64 72 49 60 63 75 67 71 42 38 25 20 21 22 21 19
81 80 80 83 90 92 82 80 82 84 92 90 92 94 86 82 92 100 98 90 89 89 76 72 75 71 61 51 41 32 37 31 33 30 56 79 48 70 70 66 53 44 45 56 55 40 47 34 28 22 23 22 20 19
80 87 88 90 97 99 93 88 82 84 83 84 89 94 82 77 92 100 99 95 80 83 93 78 77 75 58 44 39 31 28 30 28 34 48 72 58 51 60 46 56 50 50 64 62 50 46 40 29 24 25 28 21 20
82 88 99 100 99 100 99 89 88 90 88 82 85 94 80 76 100 100 100 94 76 65 94 76 75 70 44 39 45 37 31 29 36 41 60 61 57 61 64 62 63 45 59 58 58 30 29 29 24 28 28 27 22 21
87 98 100 100 100 99 99 100 88 93 93 88 84 86 83 99 100 100 99 98 81 65 100 99 89 57 52 39 36 32 30 30 33 35 43 40 41 43 62 67 41 28 22 21 24 19 19 20 22 28 27 25 24 23
99 99 100 100 100 100 100 100 98 100 95 93 76 92 100 100 99 98 87 76 79 98 100 100 100 73 57 54 54 53 38 38 35 36 41 40 43 38 62 63 29 26 25 23 22 19 26 25 27 24 30 27 24 24
97 97 99 99 100 98 99 100 100 100 94 85 99 100 100 100 100 100 79 88 86 100 100 100 100 84 75 70 62 46 44 38 41 42 46 46 49 47 58 42 23 22 21 28 27 22 19 20 24 25 24 27 36 28
98 100 98 100 99 99 100 100 100 97 99 100 100 100 100 100 100 99 78 100 100 88 99 100 98 99 80 67 55 46 42 62 53 58 49 46 67 62 48 28 26 25 25 22 26 28 24 23 23 23 25 24 25 30
100 98 99 100 100 99 100 99 100 100 100 99 100 100 98 99 99 89 98 99 100 97 95 92 80 98 77 64 69 55 58 77 66 62 51 67 71 36 28 28 27 27 27 23 22 32 30 28 25 25 24 23 22 22
99 100 100 100 100 100 100 100 100 100 99 100 99 99 100 96 92 99 100 100 100 100 75 69 67 74 63 67 84 58 84 80 77 70 66 73 82 63 31 29 28 27 27 26 24 18 20 22 27 26 24 23 22 21
100 99 100 100 100 100 98 99 99 100 99 96 79 100 91 94 100 99 99 100 100 97 80 65 58 54 48 41 63 70 72 75 72 72 79 81 74 29 33 35 33 33 33 28 22 21 19 15 17 26 25 23 22 22
100 100 100 100 100 98 98 99 100 98 94 62 82 100 98 100 99 99 98 100 99 89 61 55 64 51 49 46 73 71 67 78 69 80 78 76 42 32 32 31 30 29 30 34 29 21 20 16 14 22 26 23 22 22
100 100 100 99 98 98 100 99 92 63 55 96 100 99 99 99 99 96 93 94 76 62 56 55 69 69 63 67 81 61 71 74 78 82 69 72 34 26 33 32 26 27 28 33 32 24 23 19 15 15 19 22 22 22
99 100 99 99 99 99 96 77 68 76 98 99 98 98 99 90 90 83 75 64 60 55 56 61 67 53 86 78 74 81 75 77 77 69 79 34 26 24 28 30 28 26 27 32 34 31 24 18 16 16 19 21 21 21
100 100 100 100 98 89 83 73 97 95 100 98 98 96 92 91 93 76 68 65 56 53 47 41 74 66 68 78 77 73 67 70 67 74 31 31 26 28 25 31 31 29 28 29 34 32 22 19 19 19 20 22 23 23
100 100 100 93 88 81 95 100 96 100 100 91 93 89 82 74 81 72 64 59 53 44 71 77 56 49 84 87 82 79 74 73 46 33 31 32 27 30 31 33 30 20 25 28 31 31 28 24 22 23 24 26 27 29
97 98 83 84 92 99 100 100 99 99 86 86 89 87 82 74 76 69 61 55 46 55 44 54 60 76 78 67 80 78 53 40 30 28 34 34 34 34 35 33 28 19 21 26 27 30 28 23 23 25 27 29 33 36
82 74 78 90 99 96 98 100 100 93 86 83 84 82 79 75 71 64 58 50 45 36 37 54 61 65 65 68 62 47 34 32 30 41 42 40 38 37 39 36 29 24 20 24 28 28 26 25 25 28 30 33 36 40
74 72 96 100 98 96 100 99 88 73 87 75 75 75 78 75 66 62 56 48 38 34 49 55 58 56 49 34 31 21 21 26 28 44 43 41 35 31 34 31 27 24 25 30 31 28 28 30 32 34 36 38 40 42
95 90 94 93 97 97 100 96 79 69 65 75 75 70 74 64 65 54 48 39 37 58 60 50 50 47 45 40 32 24 26 29 27 22 30 41 40 38 35 34 31 28 27 34 36 36 35 35 36 39 41 42 39 33
100 93 100 99 99 100 92 88 78 70 73 76 72 73 75 79 72 63 52 48 54 49 47 48 51 45 38 32 33 28 29 36 37 33 31 28 34 36 32 26 24 26 31 32 36 39 41 42 42 43 43 39 37 37
99 100 100 98 99 94 84 80 77 75 92 90 79 83 86 81 72 60 74 65 53 42 45 48 49 44 36 39 37 40 42 38 25 27 25 27 29 32 27 25 28 28 34 40 43 44 45 46 47 48 47 42 40 37
90 93 98 98 96 98 96 88 78 81 71 85 92 92 85 79 62 70 76 64 53 42 44 45 40 44 43 46 41 36 34 32 24 26 26 22 23 26 28 26 26 31 37 41 43 47 50 50 53 52 48 46 46 44
98 98 98 98 94 92 96 95 86 82 89 88 95 99 91 66 89 83 77 67 52 45 44 39 38 32 29 32 31 27 24 23 20 20 26 30 28 27 28 30 33 37 41 44 49 51 52 55 58 58 53 51 52 48
95 96 94 96 98 88 88 92 88 88 84 89 95 88 78 93 84 73 82 48 49 46 45 43 41 38 36 33 26 23 24 24 21 21 24 22 23 23 21 22 26 33 33 37 46 52 55 56 58 60 60 58 56 53
94 95 85 86 78 76 88 81 74 81 84 92 95 93 86 88 86 84 59 54 45 45 46 44 43 42 39 39 38 36 30 26 24 25 23 22 21 23 23 22 22 23 28 33 38 42 49 53 53 53 53 54 54 52
89 76 86 80 76 71 89 89 90 86 93 81 80 81 69 69 68 51 45 47 47 41 40 45 48 48 47 46 45 42 38 38 39 37 30 24 27 28 26 27 27 29 36 36 38 40 43 47 50 52 54 54 53 55
98 94 70 91 80 80 92 84 86 73 77 65 84 89 77 66 63 48 49 56 50 43 41 42 44 46 47 47 47 48 47 42 41 41 37 31 30 24 26 30 32 33 35 38 37 36 36 39 42 45 47 51 54 62
98 90 92 96 95 97 98 93 78 74 67 59 55 52 56 66 54 44 46 50 46 40 38 46 46 47 45 42 42 44 44 43 46 49 46 37 28 33 40 45 46 46 46 45 44 44 45 46 45 46 48 49 50 50
97 80 84 88 99 100 86 62 56 54 56 58 46 45 55 48 47 44 36 24 17 18 24 31 37 37 38 37 34 30 24 22 18 20 21 20 18 18 26 38 49 55 55 56 59 62 62 61 62 63 60 60 60 61
92 100 96 95 99 88 60 60 62 63 56 50 55 54 53 48 44 45 43 38 37 33 27 21 17 17 17 17 17 16 16 15 15 16 16 16 15 14 13 13 16 26 40 47 55 55 56 64 70 72 72 70 67 65
77 70 74 72 76 89 91 80 86 83 68 69 68 56 52 50 51 47 44 40 36 33 31 29 27 27 26 27 26 26 26 25 24 23 21 18 17 15 16 16 20 23 37 50 66 66 59 56 56 50 48 53 63 66

GFSWCAN_850_rhum_285.txt.gz
RH
90 90 88 92 93 94 95 99 99 99 98 94 91 87 84 80 80 94 99 84 96 86 68 61 65 99 97 80 87 71 58 51 64 64 68 69 68 67 54 51 54 58 66 69 67 63 58 35 41 34 40 26 26 39
88 89 91 93 94 98 99 99 99 99 99 99 92 88 88 82 79 89 100 98 94 86 73 66 58 59 91 96 91 62 68 48 39 78 78 67 70 72 57 61 51 55 56 68 58 65 42 33 32 25 24 26 24 21
88 89 92 94 98 99 99 100 99 100 100 99 92 89 93 85 85 91 100 99 100 98 87 79 64 44 56 82 76 74 56 38 33 37 58 72 51 65 64 56 53 52 50 55 48 41 43 29 25 24 22 24 22 19
90 92 95 97 98 99 100 100 99 94 98 99 96 94 95 94 92 98 99 97 92 93 88 72 50 37 33 51 70 83 63 44 37 37 46 63 50 52 54 48 49 51 48 51 50 44 37 31 27 21 22 22 21 18
90 93 95 99 99 99 100 96 96 87 87 100 96 97 97 98 97 99 99 98 84 75 80 71 58 39 30 37 66 84 72 60 42 45 61 56 57 55 64 52 49 51 50 51 50 26 27 19 17 17 19 23 22 18
92 93 98 100 100 96 92 88 92 98 89 89 98 99 100 98 99 100 99 100 94 87 79 92 63 56 51 52 54 65 74 57 55 38 49 48 48 48 54 52 37 26 25 20 22 20 17 16 15 16 19 20 22 20
97 96 99 100 98 92 86 84 85 91 98 82 97 99 99 99 99 99 98 93 92 96 99 83 85 79 84 83 85 74 71 63 53 48 47 46 52 50 59 54 34 26 23 22 21 25 22 19 16 14 14 19 22 22
98 98 98 99 95 98 94 88 86 89 97 92 96 99 99 100 100 100 95 65 87 100 93 89 91 96 84 79 76 66 59 55 52 51 56 50 56 58 64 45 30 28 27 25 24 23 22 22 20 18 20 23 25 26
99 99 97 95 88 91 94 96 90 88 90 100 92 100 100 100 99 100 87 100 90 82 90 98 96 96 90 82 81 66 64 73 62 61 59 54 60 63 52 36 30 28 27 26 26 26 28 28 24 21 22 25 26 26
88 93 97 93 84 90 99 86 89 92 94 100 99 100 100 99 99 98 100 100 97 90 94 89 78 95 98 83 88 89 75 84 79 62 55 64 56 42 37 31 27 26 26 26 28 28 29 33 29 24 23 22 23 27
94 93 97 93 90 98 100 100 98 96 99 100 99 100 99 99 98 99 99 99 99 99 99 90 80 92 96 86 86 80 82 74 75 65 61 67 69 46 39 35 32 30 30 30 28 26 24 23 22 25 23 24 22 26
88 86 92 100 100 100 100 100 100 100 100 98 94 99 100 98 100 98 96 98 91 86 92 89 72 71 92 85 72 75 78 79 72 71 74 75 65 35 34 34 32 31 32 31 31 30 26 24 19 24 24 23 23 21
100 95 97 99 100 99 100 100 99 100 100 99 92 99 99 99 98 94 97 92 96 96 95 71 80 79 90 99 90 80 77 81 72 78 78 71 46 32 31 30 28 28 28 30 31 32 30 25 23 19 23 25 24 24
96 99 99 100 99 99 99 100 100 100 96 76 98 98 97 98 88 84 55 51 65 89 86 65 86 92 92 100 94 76 73 76 84 89 73 71 36 28 28 27 26 27 29 28 28 30 32 31 26 22 18 23 25 26
100 95 99 100 99 100 100 100 99 97 66 69 74 89 97 78 81 66 47 47 53 67 74 78 91 84 93 98 83 78 86 81 76 73 78 34 25 24 24 27 27 30 29 25 24 28 34 36 27 25 18 16 24 27
100 100 100 99 100 100 100 100 98 64 57 62 87 93 90 88 99 84 47 44 61 77 74 69 84 89 80 87 92 79 69 76 69 70 31 26 22 21 24 28 26 28 27 23 22 24 33 37 29 22 21 16 17 24
99 100 99 100 100 99 100 93 66 50 54 92 100 98 82 55 78 85 65 48 67 79 93 92 99 92 83 80 80 70 76 71 48 34 26 25 24 19 25 26 22 20 21 22 25 30 34 29 24 21 20 17 18 25
100 100 100 100 100 100 96 74 53 74 99 98 93 93 94 70 66 84 73 58 66 73 75 77 76 81 85 70 72 71 47 30 29 26 25 28 27 24 26 22 22 22 22 24 26 33 30 25 22 18 18 17 17 21
100 100 100 98 89 72 60 60 79 99 100 87 75 88 97 85 79 67 71 71 66 70 60 56 61 64 66 67 59 32 28 25 27 25 29 25 23 25 25 27 24 24 23 23 28 33 29 26 19 18 18 19 19 21
100 100 91 75 65 59 94 99 73 94 98 91 76 99 89 80 78 76 74 76 70 63 67 73 63 53 41 28 29 30 25 22 24 37 36 31 28 26 29 27 20 19 23 26 33 34 31 22 21 22 23 24 24 24
100 99 96 71 64 83 98 89 83 96 100 100 100 94 88 77 84 83 90 88 88 88 83 50 42 41 37 33 33 32 30 27 22 19 22 34 31 32 32 25 20 19 18 23 32 31 23 22 24 24 25 27 28 29
100 88 88 75 83 95 99 98 95 99 100 100 99 100 98 97 96 96 99 96 86 69 51 52 55 42 35 35 37 33 28 27 30 25 27 29 36 37 31 25 19 15 18 22 25 28 30 30 27 26 28 30 32 34
98 85 69 82 95 99 99 100 99 100 100 100 100 100 100 100 99 95 99 93 75 59 57 62 51 46 51 49 41 40 36 32 28 26 29 32 32 29 24 20 19 16 19 25 28 28 29 28 28 30 32 35 37 39
77 75 86 91 98 98 99 99 99 100 100 99 99 99 100 99 92 96 99 95 73 63 60 60 51 58 56 54 54 47 41 30 29 29 28 25 27 30 27 23 23 24 26 25 29 30 31 32 33 34 36 39 40 41
60 87 84 95 99 98 97 98 95 96 98 98 98 98 99 94 97 97 98 92 70 67 61 64 64 62 55 48 44 38 34 29 24 27 31 26 21 22 25 25 25 26 26 26 29 32 34 36 38 40 42 43 44 44
93 98 95 96 95 96 93 96 96 97 97 98 98 95 84 85 84 81 79 68 64 60 62 64 59 54 48 38 31 32 35 31 24 21 26 24 21 15 16 19 20 24 24 30 33 33 34 37 39 42 44 45 45 46
94 96 98 98 98 93 89 83 93 96 96 94 94 89 84 90 80 82 70 68 61 54 52 51 44 36 34 32 25 24 24 23 22 19 22 25 26 27 26 21 22 24 24 25 30 35 36 36 39 43 46 50 49 47
99 99 96 86 88 80 87 85 86 89 91 87 78 81 86 84 85 95 90 73 61 53 51 43 35 28 22 19 18 20 21 20 19 22 26 30 34 34 31 30 27 26 28 31 35 37 40 43 47 48 50 50 50 51
97 97 93 96 95 96 99 98 96 97 93 69 86 87 98 100 100 100 95 73 60 60 55 49 45 42 39 38 38 36 31 28 22 24 26 30 29 32 31 32 31 28 28 28 27 30 34 36 39 43 48 51 52 52
97 98 97 96 96 96 98 100 100 95 86 89 97 100 100 100 100 100 93 83 81 76 69 62 58 52 51 49 50 52 54 53 46 38 37 41 41 43 41 39 36 34 34 33 32 31 31 33 35 37 40 41 42 44
98 98 96 97 96 97 97 86 82 81 81 80 84 90 93 93 82 80 80 83 88 85 72 70 67 64 62 62 62 60 63 63 60 56 55 53 48 41 38 36 36 34 34 37 40 40 42 44 44 44 44 43 44 44
94 97 96 96 97 97 96 88 71 76 76 77 78 78 77 82 100 100 95 70 55 52 53 44 37 38 38 40 41 34 30 28 23 21 18 17 17 18 18 19 18 17 16 15 15 18 25 35 42 47 49 51 54 57
95 95 96 95 96 96 96 96 94 90 90 97 98 89 90 97 97 100 100 95 85 76 63 53 51 46 40 34 31 28 26 25 25 24 24 24 23 23 23 22 22 21 20 18 16 15 15 16 18 24 31 40 52 61

GFSWCAN_850_rhum_288.txt.gz
RH
87 86 92 79 79 91 88 87 89 90 94 94 93 92 83 80 80 87 94 91 99 97 71 66 64 70 97 100 96 95 83 58 50 56 52 53 48 46 43 38 39 41 49 52 42 53 70 24 33 28 32 29 30 33
86 92 88 75 87 86 90 93 94 94 98 98 98 97 87 78 80 87 100 97 95 99 75 75 73 76 86 91 99 99 78 54 58 64 61 47 53 52 43 58 39 46 39 50 40 52 38 30 28 29 31 31 30 34
88 85 80 86 87 91 94 96 97 99 99 99 99 99 89 83 80 87 95 97 98 100 92 78 73 71 77 72 98 100 92 82 54 46 56 49 48 43 49 46 38 35 36 39 38 26 32 32 29 34 30 30 28 28
90 74 85 86 91 94 96 98 99 99 100 99 99 99 90 89 85 86 98 97 97 98 82 61 67 72 64 58 65 98 98 85 67 46 45 43 40 50 42 38 32 35 36 32 33 28 29 31 31 26 28 29 28 29
74 82 89 91 92 95 98 99 99 100 100 99 99 99 98 94 89 90 97 99 84 84 76 64 67 64 66 47 46 81 95 93 79 55 44 40 43 42 40 36 33 35 33 37 38 27 26 22 25 28 29 28 26 30
83 89 91 91 93 98 98 99 100 100 100 99 98 98 95 90 92 99 100 100 98 94 96 67 70 63 76 83 52 71 88 87 82 53 44 45 52 45 38 34 26 32 31 28 25 30 29 29 16 15 29 28 27 30
90 91 90 91 96 98 99 100 99 99 98 100 98 95 97 95 99 99 98 92 94 99 97 69 51 62 90 92 93 77 91 90 78 61 54 43 51 47 40 38 28 30 29 28 28 32 28 26 21 21 16 28 27 28
92 92 91 94 93 97 100 100 97 99 99 98 100 97 98 99 99 100 86 75 89 99 93 74 72 79 86 86 87 90 92 91 70 58 59 49 53 48 49 34 32 30 30 31 30 30 27 28 25 29 18 30 29 28
92 94 96 95 94 98 100 98 98 99 97 98 99 100 100 100 99 99 71 97 98 86 78 72 65 79 83 79 80 75 70 83 79 64 50 50 49 57 41 40 36 32 32 31 32 33 34 33 29 28 29 31 29 28
97 97 97 100 97 99 100 94 85 98 97 99 100 100 100 99 99 98 100 100 100 97 87 69 55 89 94 84 86 78 83 90 97 81 58 57 55 43 45 44 38 37 34 34 37 39 36 36 35 31 35 29 29 29
99 100 100 100 95 98 97 95 89 98 100 100 100 99 93 100 94 98 99 99 99 98 87 64 51 68 95 95 97 89 92 85 94 64 62 54 55 49 47 47 46 38 30 33 30 31 30 26 29 34 38 30 27 34
98 100 100 94 93 92 90 94 96 99 100 99 97 99 100 100 100 100 99 90 91 70 64 56 48 54 86 95 81 90 95 86 77 55 64 65 45 38 42 44 43 43 39 31 31 33 35 30 27 22 32 28 22 24
99 99 100 94 93 93 89 91 100 100 98 100 98 99 99 99 100 96 92 89 79 63 60 52 49 54 68 98 97 74 85 92 56 71 76 54 40 36 37 34 34 35 41 39 37 37 38 38 30 28 20 23 22 23
98 99 100 99 100 97 95 88 100 99 100 100 99 100 95 97 80 60 44 42 44 50 56 45 55 62 81 99 99 88 63 64 76 77 56 51 44 30 29 29 37 38 33 30 32 40 41 38 34 31 28 19 22 23
99 100 100 100 98 100 92 88 99 100 94 100 94 76 88 58 55 48 35 40 50 50 52 55 60 69 80 100 99 76 78 83 61 44 52 42 28 27 26 26 32 38 34 33 38 37 33 33 34 33 27 20 22 24
100 100 99 100 100 100 100 100 100 100 84 73 62 46 46 59 73 54 43 45 52 52 54 54 61 75 82 81 93 90 65 70 52 51 36 28 27 26 32 29 27 29 32 31 32 31 30 31 33 34 29 24 19 24
100 100 96 99 100 100 100 100 99 100 100 93 87 48 49 46 69 57 43 45 54 61 68 55 78 77 52 74 87 59 57 49 45 49 34 35 35 45 32 24 27 29 30 31 30 28 26 28 38 36 30 22 17 21
99 97 96 99 100 100 100 99 99 99 98 79 70 65 54 47 67 53 44 48 51 61 53 52 52 69 78 59 50 47 52 42 32 34 35 25 29 31 29 26 30 30 29 26 22 24 29 34 36 32 28 24 16 19
97 98 100 99 100 98 99 99 96 84 82 66 76 86 74 78 65 53 44 49 47 46 42 47 54 52 48 38 41 40 41 39 42 36 34 27 23 30 29 30 25 24 22 21 25 30 32 29 26 23 20 21 19 20
100 100 100 100 93 82 99 96 77 82 76 82 70 80 81 73 73 70 61 57 56 58 55 53 55 47 46 41 40 39 35 32 30 32 36 26 25 32 32 25 24 22 22 26 32 32 30 26 23 20 18 18 17 17
100 100 99 92 75 73 92 91 98 99 99 98 90 75 72 77 76 80 72 64 61 66 63 51 50 51 65 46 46 42 31 35 39 44 38 27 34 34 31 27 24 22 21 26 31 30 27 24 20 19 20 21 21 21
100 99 97 82 73 84 90 97 98 94 95 99 98 87 76 87 96 87 85 84 82 79 69 57 63 51 64 47 41 40 36 36 39 37 27 28 33 36 32 24 18 22 25 29 32 32 31 21 22 23 24 26 25 25
87 71 69 77 87 90 98 96 96 95 99 99 99 100 100 98 99 100 99 94 92 82 78 62 53 51 60 48 49 42 31 34 35 28 32 32 31 33 28 19 20 18 22 29 32 29 23 23 24 24 26 28 28 29
66 73 83 90 90 100 99 99 100 98 99 98 100 100 100 99 100 100 99 99 89 89 82 69 63 76 66 57 51 41 40 48 39 44 33 26 32 34 28 22 20 21 22 24 31 30 28 29 28 27 28 30 31 33
77 89 81 96 97 96 99 99 98 96 99 100 100 100 100 100 100 100 100 99 88 89 88 81 97 81 60 55 50 50 50 47 38 31 35 33 25 27 28 25 23 22 22 23 27 30 30 29 29 30 32 33 34 35
90 96 93 93 94 91 92 96 97 98 98 99 100 98 99 100 100 99 99 99 91 89 87 86 87 81 71 63 51 54 46 45 39 31 34 30 21 15 16 16 16 21 22 27 22 25 28 31 32 32 34 37 38 40
91 96 98 99 98 97 94 86 98 98 99 98 96 99 100 99 96 97 99 100 96 90 86 81 60 64 67 53 50 47 47 41 33 26 30 29 26 21 15 13 15 17 21 25 29 27 25 28 32 35 38 39 40 40
94 93 91 97 96 99 94 90 96 97 97 99 98 96 96 95 96 98 98 100 92 79 72 67 65 67 57 48 42 40 41 37 34 31 30 30 29 28 25 23 22 26 28 30 31 33 34 34 33 35 37 39 42 45
92 100 96 95 97 96 95 95 94 98 98 99 95 96 96 97 97 98 99 99 82 73 64 58 62 59 52 47 42 38 37 36 30 32 29 34 34 33 30 27 26 26 27 28 30 32 35 36 40 45 48 48 49 52
96 99 91 93 93 94 96 99 98 98 98 99 98 97 97 97 97 98 99 98 80 71 68 61 60 61 62 56 56 52 46 38 30 23 23 30 33 34 33 31 27 25 24 24 25 25 28 30 32 33 36 39 43 44
97 99 95 95 92 98 97 98 98 98 98 98 94 94 96 96 97 97 97 98 100 91 77 72 67 66 67 66 63 58 56 52 46 40 34 33 35 37 38 38 37 35 33 32 32 32 31 31 32 34 35 37 38 39
98 96 94 90 93 98 97 97 97 97 96 90 96 90 93 90 96 94 96 97 94 81 81 78 76 76 74 72 67 61 62 64 61 55 50 42 39 34 30 26 21 19 18 17 17 17 18 20 25 31 36 40 44 47
98 98 98 95 95 95 96 97 92 95 96 93 95 98 100 95 94 97 94 98 98 98 89 80 67 49 42 34 30 27 24 23 22 21 21 21 22 22 22 22 22 22 21 21 21 20 18 16 16 16 17 20 24 30

GFSWCAN_850_rhum_291.txt.gz
RH
90 97 94 87 79 78 87 69 73 83 84 85 86 88 88 85 83 86 92 92 100 98 80 67 58 58 94 99 98 95 93 57 53 59 51 50 42 40 35 30 35 38 46 48 42 55 75 18 21 25 35 26 24 24
90 90 84 80 83 84 78 63 79 85 82 81 86 88 89 90 87 87 96 97 92 99 74 79 68 78 92 97 95 99 99 72 63 69 60 44 44 44 40 49 30 42 37 48 39 49 35 22 25 25 26 24 25 23
96 92 91 89 85 78 64 77 82 85 89 92 96 96 94 93 91 91 92 92 99 99 97 80 66 65 71 85 79 96 99 100 80 89 59 49 44 34 45 41 40 33 29 34 36 26 27 25 22 25 26 24 22 26
98 90 78 78 77 62 74 82 87 91 95 99 99 100 98 99 97 90 91 94 99 99 84 53 56 63 62 76 78 63 74 98 100 92 54 43 39 40 35 34 32 30 30 30 30 25 24 25 24 23 23 24 23 22
95 87 56 52 56 72 82 86 90 91 94 98 99 100 99 98 98 88 90 95 95 85 65 65 59 50 60 79 95 96 78 99 99 79 56 48 36 36 32 30 30 29 29 35 35 23 25 23 23 26 24 23 22 22
93 74 29 31 66 81 86 88 91 97 97 99 100 99 99 100 100 97 100 99 99 90 92 79 56 57 61 68 83 94 83 100 100 92 56 45 51 43 36 32 23 29 24 24 24 27 27 30 25 24 24 23 21 25
88 47 19 55 80 84 87 90 96 95 99 100 100 99 99 100 98 99 98 89 80 98 99 71 44 42 53 70 87 98 91 99 98 91 66 48 42 41 37 38 24 25 25 25 26 28 28 26 23 23 23 23 23 22
61 16 48 83 85 89 90 97 97 100 100 100 100 99 100 99 98 100 85 64 90 100 91 80 52 49 63 83 80 80 97 94 97 90 64 51 50 45 48 32 28 26 26 26 26 29 28 27 26 24 25 22 23 22
15 46 85 88 90 89 89 98 99 100 100 99 100 98 99 99 99 98 88 78 91 73 76 56 60 56 69 60 62 81 83 95 96 83 64 56 56 61 41 33 30 29 28 28 29 29 29 32 28 26 27 24 22 22
56 88 93 92 93 90 90 98 100 100 99 100 100 99 99 99 99 100 100 100 100 98 78 53 41 50 84 56 73 68 68 64 91 89 59 62 60 43 40 36 33 33 33 32 32 31 33 32 31 30 27 28 24 23
93 94 94 96 94 91 94 99 100 99 99 100 99 99 98 98 99 99 99 99 99 94 61 48 43 41 79 93 76 75 87 78 81 53 61 56 57 48 43 41 40 40 37 36 35 34 36 34 32 32 31 31 28 25
98 98 98 98 99 93 89 100 100 99 99 98 98 97 100 99 100 100 100 93 82 57 45 44 42 41 85 98 94 80 66 64 62 42 60 53 38 35 39 41 42 41 41 41 37 34 34 33 33 33 33 34 33 28
100 100 98 98 100 99 90 100 100 99 100 98 98 99 99 99 100 100 97 73 64 40 35 43 42 40 85 98 99 92 87 93 47 69 67 46 31 30 34 38 42 40 41 42 42 36 34 32 35 37 35 35 38 35
100 100 95 96 100 100 88 97 99 100 100 99 99 99 99 100 78 52 40 38 38 35 39 38 39 41 61 99 100 94 65 57 70 75 51 37 33 36 34 36 38 37 37 41 44 42 39 37 38 38 38 34 27 32
100 99 96 99 99 93 86 93 100 100 99 99 99 89 75 50 39 38 34 32 34 33 39 38 42 50 62 96 100 100 76 81 52 38 38 32 33 36 36 36 38 38 37 38 43 46 44 43 42 41 42 37 28 25
100 100 99 99 99 83 86 98 100 100 100 100 94 67 37 46 52 40 35 35 35 35 36 40 54 62 62 62 92 93 75 63 41 35 34 36 40 36 33 34 37 41 42 44 46 45 45 47 44 46 45 44 32 23
100 99 95 98 100 96 93 100 100 99 99 87 66 53 41 38 57 46 35 36 39 37 54 47 70 58 41 48 66 55 54 42 37 43 53 40 32 42 42 42 42 41 35 38 47 48 48 52 44 52 57 50 32 22
99 98 98 99 100 100 100 100 99 100 98 79 64 52 45 39 51 44 36 38 41 36 40 45 35 42 54 47 46 41 39 42 40 44 60 42 36 30 32 43 45 32 27 44 50 52 50 51 38 49 52 55 31 24
98 96 99 99 98 100 99 99 97 97 76 58 54 49 46 44 48 42 34 39 39 35 37 35 37 42 42 33 36 34 38 39 45 45 45 46 37 32 27 30 36 43 41 53 54 53 51 40 41 51 49 48 40 24
100 98 96 98 100 99 99 100 88 74 62 56 56 50 47 48 48 45 39 43 46 39 40 47 46 36 33 35 34 34 35 38 42 46 47 33 32 34 31 31 48 54 54 55 54 52 51 50 48 46 51 44 35 21
100 99 100 100 100 100 100 90 81 77 78 55 52 51 53 46 49 50 47 43 48 47 48 40 41 41 36 36 53 60 57 50 52 57 56 50 55 39 49 50 51 52 55 57 56 54 52 50 47 41 33 38 30 20
100 100 100 99 100 100 99 98 80 91 90 70 63 57 53 62 63 62 60 57 55 51 45 47 39 37 39 40 39 51 62 65 46 46 42 48 52 47 41 56 47 58 62 46 44 43 42 32 25 21 20 21 20 18
100 98 99 97 97 97 98 96 92 83 96 94 75 64 59 54 50 51 64 63 59 55 54 50 46 47 44 57 55 52 57 52 48 56 59 53 58 60 53 52 44 44 62 55 39 33 28 23 19 19 20 20 19 19
80 75 82 92 96 100 100 99 87 77 96 90 94 94 83 91 92 78 80 60 64 65 64 60 57 61 59 76 74 61 55 51 49 49 66 64 68 72 68 50 34 33 43 35 35 30 25 20 22 23 22 22 22 21
75 88 87 100 91 97 100 100 90 86 99 89 89 99 100 99 99 99 78 62 71 78 82 79 77 75 66 64 75 65 62 62 56 73 75 72 76 76 57 39 29 27 29 32 33 31 22 22 23 24 25 26 26 27
97 99 96 95 95 94 87 98 97 96 87 99 94 70 96 99 100 98 82 97 99 96 89 83 80 83 84 86 76 58 55 64 51 83 84 81 71 38 25 21 22 27 29 32 27 24 23 26 27 26 27 29 30 31
97 96 96 99 89 85 95 94 98 98 100 100 95 100 100 100 100 94 100 100 100 100 99 96 93 88 86 79 74 78 72 64 67 69 70 68 60 36 23 18 19 20 23 26 27 26 26 28 27 28 30 32 33 34
87 84 92 93 91 92 94 95 97 98 100 98 99 100 98 96 91 100 99 100 100 100 100 100 100 94 90 92 97 92 89 78 58 58 54 46 37 28 25 21 21 23 24 27 28 27 27 26 28 30 33 34 35 37
88 92 86 92 93 93 94 94 93 98 98 99 98 90 87 98 100 98 97 99 100 100 100 100 99 99 99 88 71 71 68 61 56 54 38 37 36 32 28 28 29 30 30 29 32 35 35 36 36 36 38 40 43 45
93 100 85 92 93 93 96 98 98 97 97 96 98 98 98 97 97 97 98 99 99 100 100 99 90 75 74 73 77 75 70 62 45 29 29 36 35 36 34 35 34 32 32 32 31 32 35 36 35 35 36 40 44 47
99 97 90 94 93 97 99 96 97 96 96 96 95 96 96 96 96 96 97 99 100 100 99 89 85 81 75 69 63 58 59 59 50 44 39 39 42 41 38 35 33 32 30 28 27 27 28 29 32 35 38 40 42 43
98 96 89 92 94 97 98 96 97 97 97 96 97 96 96 97 96 95 96 97 100 100 100 99 86 89 83 78 70 64 66 68 61 55 51 49 47 45 43 39 36 32 30 28 29 30 32 32 32 34 36 40 42 44
97 98 97 94 94 95 97 97 97 95 95 94 96 97 97 96 93 97 96 96 96 97 97 98 98 94 82 74 69 66 59 51 48 43 39 34 28 25 21 20 20 19 20 20 20 20 20 19 18 17 16 16 16 17